x

Boston 16 Nm East Of Boston, Ma (44013) Wave Buoy

12:50 - Sat 28th May 2016 All times are EDT. -4 hours from GMT.

  • Sig Wave height 1.0ft
  • Swell Direction
  • Peak Period 7s
  • Average Period 5s
  • Wind
    4mph, 7mph gusts
  • Sea Temp 60°f
  • Luft Temp 67°f
  • Sea Pressure 1018.3mb
  • Boston 16 Nm East Of Boston, Ma
  • Boston 16 Nm East Of Boston, Ma

More Historic Weather Station data

Upgrade to MSW Pro to gain access to the past 30 days of data for over 8000 Wavebouys and Weather Stations around the globe.

Join Pro

Comparision Forecast

View Surf forecast
   
Sa 05/28 12:50 1ft 7s 5s 4 7 mph 1018.3mb 60f 67f
11:50 1ft 9s 5s 4 7 mph 1018.7mb 59f 66f
10:50 1ft 10s 4s 4
mph
1018.7mb 58f 69f
9:50 1ft 9s 4s 7
mph
1018.6mb 57f 66f
8:50 1ft 6s 4s 4
mph
1018.5mb 57f 62f
7:50 1.3ft 8s 4s 7 9 mph 1018.1mb 56f 61f
6:50 1.3ft 3s 4s 7
mph
1017.7mb 56f 61f
5:50 1.6ft 5s 4s 7
mph
1017mb 56f 60f
4:50 1.6ft 3s 4s 4
mph
1017mb 56f 61f
3:50 1.6ft 3s 4s 9 11 mph 1016.6mb 56f 62f
2:50 1.6ft 3s 4s 11
mph
1016.6mb 57f 62f
1:50 1.6ft 3s 4s 9 11 mph 1016.9mb 57f 63f
12:50 1.3ft 8s 4s 13 16 mph 1017.3mb 58f 64f
Fr 05/27 11:50 1.3ft 9s 4s 9 11 mph 1017.5mb 58f 61f
10:50 1.3ft 10s 4s 11
mph
1017.2mb 58f 64f
9:50 1.3ft 10s 4s 9 11 mph 1017.1mb 58f 63f
8:50 1ft 8s 4s 9
mph
1016.5mb 58f 64f
7:50 1.3ft 9s 4s 2 4 mph 1016.4mb 59f 60f
6:50 1.3ft 10s 4s 4
mph
1016.5mb 59f 57f
5:50 1.3ft 10s 4s 7 9 mph 1016.6mb 59f 58f
4:50 1.3ft 4s 4s 9 11 mph 1016.9mb 57f 57f
3:50 1.3ft 4s 4s 11
mph
1017.6mb 58f 57f
2:50 1.3ft 4s 4s 11 13 mph 1018.4mb 59f 57f
1:50 1.6ft 8s 4s 11
mph
1019.1mb 57f 56f
12:50 1.6ft 8s 4s 9 11 mph 1019.2mb 58f 56f
11:50 1.6ft 8s 4s 7
mph
1019.6mb 58f 57f
10:50 1.6ft 7s 4s 4
mph
1020mb 58f 57f
9:50 1.6ft 7s 4s 2
mph
1019.7mb 57f 58f
8:50 1.6ft 9s 4s 7 9 mph 1019.3mb 56f 56f
7:50 1.6ft 3s 4s 7 9 mph 1019.4mb 55f 57f
6:50 1.6ft 8s 4s 9
mph
1019.3mb 55f 57f
5:50 2ft 4s 4s 9
mph
1019mb 55f 56f
4:50 2ft 4s 4s 9
mph
1018.7mb 56f 57f
3:50 2ft 4s 4s 9 11 mph 1018.6mb 55f 57f
2:50 2ft 4s 4s 13 16 mph 1018.3mb 55f 57f
1:50 2ft 10s 4s 16 18 mph 1018.1mb 55f 57f
12:50 2.5ft 4s 4s 11 13 mph 1018.3mb 55f 56f
Do 05/26 11:50 2.5ft 4s 4s 16 18 mph 1018.6mb 55f 57f
10:50 3ft 4s 4s 18 20 mph 1018.6mb 55f 58f
9:50 2.5ft 4s 4s 16 20 mph 1018.5mb 55f 58f
8:50 2ft 4s 4s 16 18 mph 1018mb 55f 58f
7:50 2ft 4s 4s 16 18 mph 1017.8mb 56f 58f
6:50 2ft 4s 4s 16 18 mph 1017.7mb 56f 58f
5:50 2ft 3s 4s 18 20 mph 1017.5mb 56f 59f
4:50 1.6ft 8s 4s 16 18 mph 1017.6mb 57f 59f
3:50 1.3ft 8s 6s 13
mph
1017.7mb 57f 59f
2:50 1.6ft 7s 6s 11 13 mph 1017.9mb 58f 60f
1:50 1.6ft 8s 7s 9 11 mph 1018.3mb 58f 61f
12:50 1.6ft 8s 7s 9
mph
1018.7mb 59f 62f
11:50 1.6ft 8s 7s 7
mph
1019.3mb 61f 63f
10:50 1.6ft 8s 7s 2
mph
1019.3mb 60f 63f
9:50 1.6ft 9s 7s 2 4 mph 1019.7mb 57f 63f
8:50 1.3ft 10s 7s 7 9 mph 1019.6mb 56f 61f
7:50 1.3ft 8s 7s 7
mph
1019.2mb 56f 61f
6:50 1.3ft 9s 7s  -  mph 1018.4mb 56f 62f
5:50 1.3ft 11s 7s 4
mph
1017.6mb 56f 59f
4:50 1.6ft 11s 6s 7
mph
1016.9mb 56f 60f
3:50 1.6ft 11s 6s 4 9 mph 1016mb 56f 62f
2:50 1.6ft 11s 6s 2
mph
1016mb 56f 60f
1:50 1.6ft 11s 6s 2 4 mph 1015.7mb 56f 62f
12:50 2ft 8s 6s 11
mph
1015.1mb 56f 62f
Mi 05/25 11:50 2.5ft 7s 6s 11 13 mph 1015mb 56f 64f
10:50 2ft 9s 6s 9
mph
1015mb 56f 65f
9:50 2ft 9s 6s 11 13 mph 1014.7mb 56f 66f
8:50 2ft 8s 6s 11 16 mph 1014.4mb 56f 67f
7:50 2ft 7s 6s 7
mph
1014mb 56f 69f
6:50 2ft 8s 6s 9 11 mph 1013.7mb 56f 62f
5:50 2ft 8s 6s 7 9 mph 1013.6mb 56f 63f
4:50 2ft 11s 6s 9
mph
1013.8mb 56f 60f
3:50 2ft 8s 6s 11 13 mph 1013.8mb 56f 60f
2:50 2ft 8s 6s 11
mph
1014.2mb 56f 58f
1:50 2.5ft 8s 6s 9 11 mph 1014.2mb 55f 57f
12:50 2.5ft 9s 6s 9 13 mph 1014.9mb 55f 54f
11:50 2.5ft 9s 6s 11 13 mph 1015.5mb 55f 53f
10:50 2.5ft 8s 6s 9 11 mph 1015.9mb 54f 53f
9:50 2.5ft 9s 7s 9
mph
1015.7mb 54f 54f
8:50 2.5ft 9s 6s 7
mph
1015.9mb 54f 53f
7:50 2.5ft 8s 6s 7 9 mph 1015.8mb 54f 53f
6:50 2ft 9s 6s 4
mph
1015.4mb 54f 53f
5:50 2.5ft 9s 6s 9 11 mph 1015.5mb 54f 52f
4:50 2.5ft 8s 5s 7 9 mph 1015.1mb 54f 51f
3:50 2.5ft 8s 6s 7
mph
1014.5mb 54f 51f
2:50 2.5ft 8s 5s 9 11 mph 1014.7mb 54f 51f
1:50 2.5ft 8s 5s 9 11 mph 1014.3mb 54f 52f
12:50 2.5ft 10s 5s 7 9 mph 1014.4mb 54f 51f
Di 05/24 11:50 2.5ft 9s 5s 9 11 mph 1014.3mb 54f 52f
10:50 3ft 10s 5s 9 11 mph 1014.2mb 54f 52f
9:50 3ft 9s 5s 7 11 mph 1014.6mb 54f 52f
8:50 3.5ft 8s 5s 9 11 mph 1013.5mb 54f 52f
7:50 3ft 9s 5s 9 11 mph 1013.6mb 54f 52f
6:50 3.5ft 9s 5s 13 16 mph 1013.2mb 54f 52f